Regional Weather Roundup
Issued by NWS

Home | Current Version | Previous Version | Graphics & Text | Print | Product List | Glossary On
Versions: 1 2 3 4 5 6 7 8 9 10 11 12 13 14 15 16 17 18 19 20 21 22 23 24 25 26 27 28 29 30 31 32 33 34 35 36 37 38 39 40 41 42 43 44 45 46 47 48 49 50
485
ASUS43 KMPX 221701
RWRMN
WEATHER ROUNDUP FOR MINNESOTA
NATIONAL WEATHER SERVICE TWIN CITIES/CHANHASSEN MN
1200 PM CDT FRI SEP 22 2017


NOTE: "FAIR" INDICATES FEW OR NO CLOUDS BELOW 12,000 FEET WITH NO
SIGNIFICANT WEATHER AND/OR OBSTRUCTIONS TO VISIBILITY. N/A MEANS
CURRENT SKY AND/OR WEATHER CONDITIONS ARE NOT AVAILABLE.

MNZ060>063-068>070-221800-
   Twin Cities Metro

CITY           SKY/WX    TMP DP  RH WIND       PRES   REMARKS
TWIN CITIES    MOSUNNY   85  73  67 VRB5      29.85S HX  91
ST PAUL        CLOUDY    83  73  72 MISG      29.85S
CRYSTAL        CLOUDY    84  69  60 SE12      29.82F
BLAINE         PTSUNNY   84  72  65 S12       29.84F
LAKEVILLE      SUNNY     84  72  65 S12G18    29.84S
EDEN PRAIRIE   SUNNY     84  73  69 S8        29.83F HX  90
SOUTH ST PAUL  CLOUDY    84  71  64 S3        29.84F
LAKE ELMO      FAIR      82  73  74 SE10      29.87F
$$
MNZ001>005-007-008-013>017-022>024-027-028-221800-
   Northwest Minnesota

CITY           SKY/WX    TMP DP  RH WIND       PRES   REMARKS
BEMIDJI        SUNNY     76  65  70 E7        29.79F
HALLOCK          N/A     70  54  56 NE14      29.80F
ROSEAU         CLOUDY    66  57  72 NE12      29.85S
WARROAD        CLOUDY    61  57  88 NE7       29.87S
THIEF RVR FALL CLOUDY    66  61  82 NE15      29.79F
CROOKSTON      MOSUNNY   72  61  68 E16G22    29.75F
FOSSTON        SUNNY     79  70  73 E5        29.76F
DETROIT LAKES  CLOUDY    77  68  73 SE16      29.75F
MOORHEAD       SUNNY     81  66  61 S9        29.70F
PARK RAPIDS    CLOUDY    76  69  79 SE14      29.78F
MAHNOMEN       FAIR      78  64  63 E12       29.74F
$$
MNZ006-009>011-018-025>026-221800-
   North Central Minnesota

CITY           SKY/WX    TMP DP  RH WIND       PRES   REMARKS
BAUDETTE       CLOUDY    69  64  84 E12       29.84F
FLAG ISLAND    MOSUNNY   64  54  68 NE6       29.86R
INTL FALLS     CLOUDY    70  64  81 E5        29.86R
WASKISH        PTSUNNY   75  66  73 NE8       29.81F
BIG FORK       CLOUDY    79  63  57 E3        29.84S
LONGVILLE      MOSUNNY   77  68  73 SE7       29.81F
GRAND RAPIDS   MOSUNNY   73  65  75 SE8       29.86R
CRANE LAKE     CLOUDY    72  64  78 S7        29.87F
ORR            CLOUDY    73  63  68 CALM      29.83F
COOK           CLOUDY    75  61  60 W3        29.86R
WALKER         FAIR      74  66  75 S7        29.80F
$$
MNZ012-019>021-037-221800-
   Northeast Minnesota

CITY           SKY/WX    TMP DP  RH WIND       PRES   REMARKS
DULUTH         CLOUDY    67  65  93 S15       29.87R
ELY            CLOUDY    70  61  73 CALM      29.88S
HIBBING        CLOUDY    74  62  66 SE8       29.85R
EVELETH        CLOUDY    73  59  61 CALM      29.87R
DULUTH HARBOR  CLOUDY    66  64  94 S10       29.88R THUNDER
TWO HARBORS    CLOUDY    70  64  83 CALM      29.82R
GRAND MARAIS     N/A     67  65  93 NW3       29.85R
$$
MNZ029>031-032-039>041-046>048-054>057-064-221800-
   West Central Minnesota

CITY           SKY/WX    TMP DP  RH WIND       PRES   REMARKS
FERGUS FALLS   SUNNY     82  72  69 SE16      29.70F
WHEATON        MOSUNNY   81  72  74 SE14G20   29.71S
MORRIS         SUNNY     81  73  78 SE14G22   29.72F
ALEXANDRIA     CLOUDY    77  72  84 SE16      29.79S
ELBOW LAKE     FAIR      78  73  85 E17       29.74F HAZE
WADENA         CLOUDY    77  73  88 SE10      29.76F
GLENWOOD       SUNNY     79  72  78 SE12      29.79F
APPLETON       MOSUNNY   84  72  65 SE13      29.72F
BENSON         MOSUNNY   81  72  74 S13G18    29.76F
ORTONVILLE     MOSUNNY   82  72  69 NE10G18   29.70F
MADISON        MOSUNNY   88  73  62 S16       29.71F HX  96
WILLMAR        FAIR      82  73  74 SE8       29.79F
$$
MNZ033>034-036-042>043-049>051-058-059-221800-
   Central Minnesota

CITY           SKY/WX    TMP DP  RH WIND       PRES   REMARKS
ST CLOUD       CLOUDY    76  74  93 SE10      29.82S
SAUK CENTRE    CLOUDY    75  71  87 SE12      29.79F
PAYNESVILLE    CLOUDY    79  73  82 SE9       29.81F
AITKIN         MOSUNNY   72  68  88 SE9       29.82F
PINE RIVER     MOSUNNY   72  66  83 SE9       29.83F
BRAINERD       SUNNY     77  70  79 SE9       29.81F
STAPLES        CLOUDY    75  72  88 MISG      29.78F
LITTLE FALLS   MOSUNNY   79  64  61 SE14      29.80S
LITCHFIELD     SUNNY     82  75  78 SE9       29.79F
BUFFALO        CLOUDY    81  71  73 E8        29.82F
MAPLE LAKE     MOSUNNY   82  75  79 SE6       29.82F
HUTCHINSON     MOSUNNY   85  74  70 S9        29.81F HX  93
$$
MNZ037-044-045-052-053-221800-
   East Central Minnesota

CITY           SKY/WX    TMP DP  RH WIND       PRES   REMARKS
PRINCETON      CLOUDY    79  73  83 SE12      29.83R
MORA           MOSUNNY   70  68  94 E9        29.85F
RUSH CITY      MOSUNNY   79  72  80 SE6       29.86F
MOOSE LAKE     CLOUDY    70  64  83 SE9       29.83R
HINCKLEY       CLOUDY    72  70  94 E12       29.86F
CLOQUET        CLOUDY    66  63  88 SE6       29.87S THUNDER
MCGREGOR       CLOUDY    72  64  78 SE8       29.84S
$$
MNZ071>073-080-081-089-090-097-098-221800-
   Southwest Minnesota

CITY           SKY/WX    TMP DP  RH WIND       PRES   REMARKS
MONTEVIDEO     CLOUDY    86  72  62 S12       29.74F HX  92
GRANITE FALLS  CLOUDY    86  73  65 S14       29.76F HX  93
CANBY          MOSUNNY   84  70  62 S12G18    29.73F HAZE
MARSHALL       MOSUNNY   85  71  63 S18G29    29.73S HX  90
REDWOOD FALLS  LGT RAIN  87  71  58 S18       29.76F HX  93
OLIVIA         SUNNY     82  72  69 S12       29.77S
PIPESTONE      SUNNY     84  70  61 S17G25    29.76S
WORTHINGTON    SUNNY     85  71  63 S14G24    29.81S HX  90
JACKSON        SUNNY     86  68  54 S16G25    29.83F
TRACY          SUNNY     86  72  62 S17G23    29.76S HX  92
SLAYTON        SUNNY     84  68  59 S21G28    29.79S
$$
MNZ065>067-074>077-082>085-091>093-221800-
   South Central Minnesota

CITY           SKY/WX    TMP DP  RH WIND       PRES   REMARKS
MANKATO        SUNNY     86  71  60 S16G23    29.83F HX  91
NEW ULM        SUNNY     84  70  61 S18G24    29.79F
ST JAMES       SUNNY     84  70  61 S20       29.82S
FAIRMONT       SUNNY     86  71  60 S18G26    29.84S HX  91
GLENCOE        MOSUNNY   85  74  69 S10G18    29.81F HX  93
FARIBAULT      SUNNY     84  72  65 S15G23    29.86S
OWATONNA       SUNNY     84  72  65 S16G24    29.87S
WASECA         SUNNY     82  68  61 S17       29.87F
ALBERT LEA     SUNNY     88  72  58 S13G18    29.89S HX  94
$$
MNZ078>079-086>088-094>096-221800-
   Southeast Minnesota

CITY           SKY/WX    TMP DP  RH WIND       PRES   REMARKS
ROCHESTER      SUNNY     87  70  56 S17G23    29.92S HX  92
RED WING       MOSUNNY   88  66  48 S10G17    29.85F HX  90
STANTON        SUNNY     87  71  57 S13G21    29.83F HX  92
DODGE CENTER   SUNNY     86  66  51 S20G26    29.89F
WINONA         SUNNY     90  68  48 S7        29.92R HX  93
AUSTIN         SUNNY     84  70  61 S16       29.91F
PRESTON        SUNNY     85  67  55 S15G25    29.95S
$$
ABBREVIATIONS USED IN REMARKS
   TC - TEMPERATURES IN CELSIUS
  WCI - WIND CHILL INDEX
   HX - HEAT INDEX
  VSB - VISIBILITY
$$




USA.gov is the U.S. government's official web portal to all federal, state and local government web resources and services.